www.pogodaiklimat.ru

Погода и климат >> Архив погоды >> Россия >> Чукотка >> Остров Врангеля


АРХИВ ПОГОДЫ на Острове Врангеля

Время (UTC), дата Ветер
(напр.,м/с)
 
Видим.   Явления Облачность Т
(С)
Тd
(С)
f
(%)
Тe
(С)
Тes
(С)
Комфортность P
(гПа)
Po
(гПа)
Тmin
(С)
Tmax
(С)
R
(мм)
R24
(мм)
S
(см)
21 17.05 С 10-15
{15}
20 км 9/3 600 м
[Sc Ci sp]
-2.2 -3.8 89 -11 -11 1014.2 1011.5
00 18.05 С 10-15
{18}
20 км 9/1 600 м
[Sc Ac trans Ci sp]
-0.6 -3.3 82 -9 -9 1013.2 1010.5
03 18.05 СЗ 11-15
{15}
20 км 9/5 600 м
[Sc Ac trans]
-1.7 -3.7 86 -11 -11 1012.4 1009.7
06 18.05 С 9-13
{16}
20 км 8/8 600 м
[Sc]
-2.6 -4.8 85 -11 -11 1012.1 1009.4 -0.3
09 18.05 С 8-10
{13}
20 км 9/9 600 м
[Sc]
-3.3 -5.3 86 -12 -12 1012.0 1009.3
12 18.05 С 7
{10}
20 км 10/10 600 м
[Sc]
-3.2 -5.5 84 -11 -11 1011.9 1009.2
15 18.05 СЗ 5
{9}
20 км 10/10 600 м
[Sc]
-3.4 -5.7 84 -10 -10 1011.8 1009.1
18 18.05 С 6
{7}
20 км 9/9 600 м
[Sc]
-2.7 -5.5 81 -10 -10 1011.8 1009.1 -3.5 37
21 18.05 С 7
{9}
20 км 9/9 600 м
[Sc]
-2.2 -4.8 82 -10 -10 1012.1 1009.4
00 19.05 СЗ 8
{10}
20 км 10/10 600 м
[Sc]
-1.3 -5.0 76 -9 -9 1012.5 1009.8
03 19.05 СЗ 8-10
{10}
20 км 9/5 600 м
[Sc Ac trans Ci fib]
-1.1 -4.3 79 -9 -8 1013.1 1010.4
06 19.05 СЗ 10-13
{13}
20 км 8/1 600 м
[Sc Ac trans Ci fib]
-2.2 -5.2 80 -11 -11 1013.7 1011.0 -0.8
09 19.05 СЗ 9-12
{13}
20 км 9/8 600 м
[Sc Ci fib]
-3.7 -6.2 83 -13 -13 1014.7 1012.0
12 19.05 СЗ 12-15
{15}
20 км 10/10 600 м
[Sc]
-3.5 -6.0 83 -13 -13 1015.2 1012.5
15 19.05 СЗ 12-15
{16}
20 км 10/10 600 м
[Sc]
-4.1 -7.0 80 -14 -14 1016.7 1014.0
18 19.05 СЗ 9-10
{15}
20 км 10/10 600 м
[Sc]
-3.9 -6.8 80 -13 -13 1018.1 1015.4 -4.2 37
21 19.05 СЗ 7
{11}
20 км 10/6 600 м
[Sc Ac und]
-3.1 -6.1 80 -11 -11 1018.6 1015.9
00 20.05 С 7
{9}
20 км 9/0
[Ac trans]
-2.5 -5.4 80 -10 -9 1019.3 1016.6
03 20.05 С 6
{9}
20 км 4/0
[Ac trans]
-2.3 -5.5 79 -9 -7 1020.4 1017.7
06 20.05 С 8-10
{10}
20 км 6/0
[Ac trans Ci fib]
-3.1 -5.4 84 -11 -11 1020.4 1017.7 -1.9
09 20.05 С 6
{10}
20 км ясно -3.4 -6.4 80 -11 -11 1021.1 1018.4
12 20.05 СЗ 6
{8}
20 км ясно -5.2 -7.5 84 -13 -13 1021.6 1018.9
15 20.05 С 6
{7}
20 км ясно -3.9 -6.3 83 -11 -11 1021.3 1018.6
18 20.05 С 5
{8}
20 км 10/10 600 м
[Sc]
-0.9 -3.2 84 -7 -7 1021.1 1018.4 -5.6 36
21 20.05 СВ 4
{7}
20 км 10/10 600 м
[Sc]
+0.9 -1.6 83 -4 -4 1021.1 1018.4
00 21.05 СВ 3
{6}
20 км 10/10 600 м
[Sc]
+1.4 -1.3 82 -3 -3 1020.7 1018.0
03 21.05 С 6
{7}
20 км 10/10 600 м
[Sc]
+1.0 -1.2 85 -5 -5 1020.5 1017.8
06 21.05 С 8
{10}
20 км 10/10 600 м
[Sc]
+0.7 -0.9 89 -7 -7 1020.0 1017.3 +1.4
09 21.05 СЗ 6
{10}
20 км 9/9 600 м
[Sc]
+0.4 -1.1 90 -6 -6 1020.2 1017.5
12 21.05 С 1
{7}
20 км 10/10 600 м
[Sc]
-0.1 -1.4 91 -2 -2 1020.3 1017.6
15 21.05 СЗ 4
{5}
20 км 10/10 600 м
[Sc]
-0.3 -1.9 89 -6 -6 1020.5 1017.8
18 21.05 Ю 2
{5}
20 км 10/10 200 м
[Sc]
-0.6 -1.2 96 -5 -5 1020.8 1018.1 -0.6 35
21 21.05 Ю 2
{4}
20 км 10/10 600 м
[Sc]
-0.2 -1.3 92 -4 -4 1021.1 1018.4
00 22.05 Ю 2
{3}
20 км 10/10 600 м
[Sc]
+0.3 -1.3 89 -3 -3 1021.6 1018.9
03 22.05 Ю 1
{3}
20 км 10/10 600 м
[Sc]
+0.5 -0.9 90 -2 -2 1022.0 1019.3
06 22.05 С 4
{6}
20 км 10/10 600 м
[Sc]
-0.1 -2.1 86 -6 -6 1022.4 1019.7 +1.3
09 22.05 ЮЗ 1
{6}
20 км 10/10 600 м
[Sc]
-0.5 -1.3 94 -3 -3 1023.1 1020.4
12 22.05 Ю 2
{3}
4000 м слаб. ливневой снег 10/10 600 м
[Cb cap]
-1.2 -1.7 96 -5 -5 1023.3 1020.6
15 22.05 ЮЗ 2
{3}
4000 м слаб. ливневой снег 10/10 600 м
[Cb cap]
-1.6 -2.4 94 -6 -6 1023.4 1020.7
18 22.05 ЮЗ 2
{5}
20 км {ливн. осадки} 10/10 600 м
[Sc]
-2.0 -2.9 94 -6 -6 1023.0 1020.3 -2.0 35
21 22.05 ЮЗ 2
{3}
20 км 10/10 600 м
[Sc]
-1.5 -2.8 91 -5 -5 1023.1 1020.4
00 23.05 Ю 3
{5}
20 км 10/10 600 м
[Sc]
-1.4 -2.9 90 -6 -6 1022.6 1019.9
03 23.05 Ю 2
{4}
20 км 9/1 600 м
[Sc Ac trans]
-1.5 -3.2 88 -5 -3 1021.5 1018.8
06 23.05 Ю 1
{3}
20 км 10/10 600 м
[Sc]
-1.6 -3.3 88 -4 -4 1020.9 1018.2 +0.1
09 23.05 В 2
{2}
20 км 10/10 600 м
[Sc]
-1.7 -2.7 93 -6 -6 1020.2 1017.5
12 23.05 В 2
{3}
20 км 10/10 600 м
[Sc]
-1.9 -2.6 95 -6 -6 1019.7 1017.0
15 23.05 В 2
{3}
4000 м слаб. ливневой снег 10/10 300 м
[Cb cap]
-1.6 -2.0 97 -6 -6 1018.7 1016.0
18 23.05 В 2
{3}
20 км в посл. час ливневой снег 10/10 600 м
[Sc]
-0.1 -1.1 93 -4 -4 1018.2 1015.5 -2.0 2 37
21 23.05 В 2
{4}
20 км 10/10 600 м
[Sc]
+0.3 -1.3 89 -3 -3 1017.4 1014.7
00 24.05 В 3
{5}
20 км 10/10 600 м
[Sc]
+0.3 -1.3 89 -4 -4 1017.2 1014.5
03 24.05 В 4
{5}
20 км 10/10 600 м
[Sc]
-0.4 -1.8 90 -6 -6 1017.2 1014.5
06 24.05 В 3
{7}
20 км 10/10 600 м
[Sc]
-1.1 -2.4 91 -6 -6 1017.7 1015.0 +0.7
09 24.05 В 3
{5}
20 км 10/10 600 м
[Sc]
-2.1 -2.8 95 -7 -7 1018.3 1015.6
12 24.05 СВ 4
{5}
20 км 9/9 600 м
[Sc]
-3.7 -4.3 96 -10 -10 1018.6 1015.9
15 24.05 СВ 2
{5}
10 км 10/10 600 м
[Sc]
-3.5 -4.0 96 -8 -8 1019.4 1016.7
18 24.05 В 3
{5}
10 км 10/10 600 м
[Sc]
-4.1 -4.6 96 -10 -10 1019.1 1016.4 -4.3 34

 

Местоположение метеостанции Остров Врангеля (Чукотка, Россия): широта 70.98 долгота -178.00 высота над уровнем моря 21 м.

В архиве по умолчанию представлена погода на Острове Врангеля за последнюю неделю. Архивные данные за месяц целиком и за предыдущие месяцы, начиная с января 2011 года, Вы можете получить, выбрав интересующий диапазон дат из раскрывающегося списка и нажав кнопку "Ввод!".


*Определитесь, кто Вы:
робот инопланетянин человек

Внимание! Время в таблицах - всемирное. Для получения местного времени необходимо прибавить поправку, которая равна 12 ч.

Смотрите также архив погоды в соседних городах и на ближайших метеорологических станциях:

Погода на Мысе Шмидта (Чукотка, Россия) (238 км)
Погода на Мысе Биллингс (Чукотка, Россия) (265 км)
Погода в Паляваам-Глубокой (Чукотка, Россия) (364 км)
Погода на Мысе Ванкарем (Чукотка, Россия) (369 км)
Погода в Комсомольской (Чукотка, Россия) (404 км)
Погода в Майской (Чукотка, Россия) (423 км)
Погода в Валькаркае (Чукотка, Россия) (423 км)
Погода на 21 км (Чукотка, Россия) (444 км)
Погода в Певеке (Чукотка, Россия) (463 км)
Погода в Чауне (Чукотка, Россия) (489 км)

Пояснения к столбцам:

Ветер - указаны скорость ветра в м/с - средняя за 10 мин, порывы в срок и между сроками (в фигурных скобках) и направление, откуда дует ветер: С - северный, СВ - северо-восточный, В - восточный, ЮВ - юго-восточный, Ю - южный, ЮЗ - юго-западный, З - западный, СЗ - северо-западный.
Видимость - горизонтальная дальность видимости в метрах или километрах. При видимости от 1 до 10 км при отсутствии осадков обычно наблюдается дымка, при ухудшении видимости до 1 км и менее - туман. В сухую погоду видимость может ухудшаться дымом, пылью или мглою.
Явления - указаны атмосферные явления, наблюдавшиеся в срок или в последний час перед сроком; фигурными скобками обозначены явления, наблюдавшиеся между сроками (за 1-3 часа до срока); квадратными скобками обозначены град или гололедные отложения с указанием их диаметра в мм.
Облачность - указаны через наклонную черту общая и нижняя облачность в баллах и высота нижней границы облаков в метрах; квадратными скобками обозначены формы облаков: Ci - перистые, Cs - перисто-слоистые, Cc - перисто-кучевые, Ac - высококучевые, As - высокослоистые, Sc - слоисто-кучевые, Ns - слоисто-дождевые, Cu - кучевые, Cb - кучево-дождевые. Подробнее классификацию облаков см. в Атласе облаков (PDF).
T - Температура воздуха - температура, измеренная на высоте 2 м над землей.
Td - Температура точки росы - температура, при понижении до которой содержащийся в воздухе водяной пар достигнет насыщения.
f - Относительная влажность воздуха - влажноcть воздуха, измеренная на высоте 2 м над землей.
Te - Эффективная температура - температура, которую ощущает одетый по сезону человек в тени. Характеристика душности погоды. При расчете учитывается влияние влажности воздуха и скорости ветра на теплоощущения человека.
Tes - Эффективная температура на солнце - температура, которую ощущает человек, с поправкой на солнечный нагрев. Характеристика знойности погоды. Зависит от высоты солнца над горизонтом, облачности и скорости ветра. Ночью, в пасмурную погоду, а также при ветре 12 м/с и более поправка равна нулю.
P - Атмосферное давление - приведенное к уровню моря атмосферное давление.
Po - Атмосферное давление - измеренное на уровне метеостанции атмосферное давление.
Tmin - Минимальная температура - минимум температуры воздуха на высоте 2 м над землей.
Tmax - Максимальная температура - максимум температуры воздуха на высоте 2 м над землей.
R - Количество осадков - Количество выпавших осадков за период времени, мм. При наведении курсора мыши на число - период времени, за который выпало указанное количество осадков.
R24 - Количество осадков - Количество выпавших осадков за 24 часа, мм.
S - Снежный покров - Высота снежного покрова, см. При наведении курсора мыши на число - состояние снежного покрова и степень покрытия местности в баллах.